Weather History for KOVL - February, 2013

Change the Weather History Date:

Wednesday, February 20, 2013

  Actual Average (KRWF) Record (KRWF)
Temperature  
Mean Temperature -3 °F -  
Max Temperature 10 °F 31 °F 63 °F (1981)
Min Temperature -14 °F 13 °F -20 °F (1966)
Degree Days  
Heating Degree Days 68    
Moisture  
Dew Point -9 °F    
Average Humidity 71    
Maximum Humidity 78    
Minimum Humidity 66    
Precipitation  
Precipitation 0.00 in - - ()
Sea Level Pressure  
Sea Level Pressure 30.40 in    
Wind  
Wind Speed 2 mph (NNW)    
Max Wind Speed 9 mph    
Max Gust Speed -    
Visibility 10 miles    
Events      
Averages and records for this station are not official NWS values.
T = Trace of Precipitation, MM = Missing Value Source: NWS Daily Summary

Daily Weather History Graph

Daily Weather History Graph

Search for Another Location

Airport or City:

Trip Planner

Search our weather history database for the weather conditions in past years. The results will help you decide how hot, cold, wet, or windy it might be!

Date:

Astronomy

Feb. 20, 2013 Rise Set
Actual Time 7:12 AM CST 5:55 PM CST
Civil Twilight 6:42 AM CST 6:25 PM CST
Nautical Twilight 6:08 AM CST 6:59 PM CST
Astronomical Twilight 5:34 AM CST 7:33 PM CST
Moon 1:10 PM CST (2/20) 3:40 AM CST (2/20)
Length of Visible Light 11h 43m
Length of Day
10h 43m
Waxing Gibbous, 76% of the Moon is Illuminated
Feb 20
Waxing Gibbous
Feb 25
Full
Mar 4
Last Quarter
Mar 11
New
Mar 19
First Quarter

Hourly Weather History & Observations

Time (CST) Temp. Windchill Dew Point Humidity Pressure Visibility Wind Dir Wind Speed Gust Speed Precip Events Conditions
12:11 AM -9.4 °F -26.8 °F -16.6 °F 71% 30.40 in 10.0 mi NW 9.2 mph - N/A   Clear
12:31 AM -9.4 °F -26.8 °F -16.6 °F 71% 30.41 in 10.0 mi NW 9.2 mph - N/A   Clear
12:50 AM -9.4 °F -20.9 °F -16.6 °F 71% 30.42 in 10.0 mi WNW 4.6 mph - N/A   Clear
1:11 AM -9.4 °F - -16.6 °F 71% 30.42 in 10.0 mi Calm Calm - N/A   Clear
1:31 AM -9.4 °F - -16.6 °F 71% 30.42 in 10.0 mi Calm Calm - N/A   Clear
1:51 AM -9.4 °F - -16.6 °F 71% 30.43 in 10.0 mi Calm Calm - N/A   Clear
2:10 AM -9.4 °F - -16.6 °F 71% 30.43 in 10.0 mi Calm Calm - N/A   Clear
2:31 AM -9.4 °F - -16.6 °F 71% 30.43 in 10.0 mi Calm Calm - N/A   Clear
2:51 AM -9.4 °F - -16.6 °F 71% 30.43 in 10.0 mi Calm Calm - N/A   Clear
3:31 AM -13.0 °F - -18.4 °F 77% 30.43 in 10.0 mi Calm Calm - N/A   Clear
3:51 AM -13.0 °F - -18.4 °F 77% 30.43 in 10.0 mi Calm Calm - N/A   Clear
4:10 AM -13.0 °F - -18.4 °F 77% 30.43 in 10.0 mi Calm Calm - N/A   Clear
4:31 AM -13.0 °F -22.7 °F -18.4 °F 77% 30.43 in 10.0 mi NW 3.5 mph - N/A   Clear
4:50 AM -13.0 °F - -18.4 °F 77% 30.43 in 10.0 mi Calm Calm - N/A   Clear
5:11 AM -13.0 °F - -20.2 °F 70% 30.43 in 10.0 mi Calm Calm - N/A   Clear
5:31 AM -13.0 °F - -20.2 °F 70% 30.43 in 10.0 mi Calm Calm - N/A   Clear
5:50 AM -14.8 °F - -22.0 °F 70% 30.43 in 10.0 mi Calm Calm - N/A   Clear
6:11 AM -13.0 °F - -20.2 °F 70% 30.43 in 10.0 mi Calm Calm - N/A   Clear
6:31 AM -13.0 °F - -20.2 °F 70% 30.43 in 10.0 mi Calm Calm - N/A   Clear
6:50 AM -14.8 °F - -22.0 °F 70% 30.43 in 10.0 mi Calm Calm - N/A   Clear
7:11 AM -14.8 °F - -20.2 °F 77% 30.43 in 10.0 mi Calm Calm - N/A   Clear
7:31 AM -13.0 °F - -18.4 °F 77% 30.43 in 10.0 mi Calm Calm - N/A   Clear
7:50 AM -13.0 °F - -18.4 °F 77% 30.42 in 10.0 mi Calm Calm - N/A   Clear
8:11 AM -13.0 °F - -18.4 °F 77% 30.42 in 10.0 mi Calm Calm - N/A   Clear
8:31 AM -13.0 °F - -18.4 °F 77% 30.42 in 10.0 mi Calm Calm - N/A   Clear
8:51 AM -9.4 °F - -16.6 °F 71% 30.43 in 10.0 mi Calm Calm - N/A   Clear
9:11 AM -7.6 °F - -14.8 °F 71% 30.43 in 10.0 mi Calm Calm - N/A   Clear
9:30 AM -7.6 °F - -14.8 °F 71% 30.43 in 10.0 mi Calm Calm - N/A   Clear
9:51 AM -5.8 °F - -13.0 °F 71% 30.43 in 10.0 mi Calm Calm - N/A   Clear
10:11 AM -4.0 °F - -11.2 °F 71% 30.43 in 10.0 mi Calm Calm - N/A   Clear
10:30 AM -2.2 °F - -9.4 °F 71% 30.44 in 10.0 mi Calm Calm - N/A   Clear
10:51 AM -2.2 °F - -9.4 °F 71% 30.43 in 10.0 mi Calm Calm - N/A   Clear
11:11 AM -0.4 °F - -7.6 °F 72% 30.44 in 10.0 mi Calm Calm - N/A   Clear
11:30 AM -0.4 °F - -7.6 °F 72% 30.44 in 10.0 mi Calm Calm - N/A   Clear
11:51 AM 1.4 °F - -7.6 °F 66% 30.43 in 10.0 mi Calm Calm - N/A   Clear
12:11 PM 3.2 °F - -5.8 °F 66% 30.42 in 10.0 mi Calm Calm - N/A   Clear
12:30 PM 3.2 °F - -4.0 °F 72% 30.41 in 10.0 mi Calm Calm - N/A   Clear
12:51 PM 3.2 °F - -4.0 °F 72% 30.42 in 10.0 mi Calm Calm - N/A   Clear
1:11 PM 5.0 °F - -4.0 °F 66% 30.42 in 10.0 mi Calm Calm - N/A   Clear
1:30 PM 5.0 °F - -4.0 °F 66% 30.42 in 10.0 mi Calm Calm - N/A   Clear
1:51 PM 5.0 °F - -4.0 °F 66% 30.42 in 10.0 mi Calm Calm - N/A   Clear
2:10 PM 5.0 °F - -4.0 °F 66% 30.41 in 10.0 mi Calm Calm - N/A   Clear
2:31 PM 5.0 °F - -2.2 °F 72% 30.40 in 10.0 mi Calm Calm - N/A   Clear
2:51 PM 8.6 °F - -0.4 °F 67% 30.40 in 10.0 mi Calm Calm - N/A   Clear
3:10 PM 8.6 °F - -0.4 °F 67% 30.40 in 10.0 mi Calm Calm - N/A   Clear
3:31 PM 8.6 °F - -0.4 °F 67% 30.38 in 10.0 mi Calm Calm - N/A   Clear
4:10 PM 8.6 °F 0.1 °F 1.4 °F 73% 30.37 in 10.0 mi NE 4.6 mph - N/A   Clear
4:31 PM 8.6 °F - 1.4 °F 73% 30.37 in 10.0 mi Calm Calm - N/A   Clear
4:51 PM 8.6 °F - 1.4 °F 73% 30.37 in 10.0 mi Calm Calm - N/A   Clear
5:11 PM 8.6 °F - 1.4 °F 73% 30.37 in 10.0 mi Calm Calm - N/A   Clear
5:30 PM 8.6 °F - 1.4 °F 73% 30.38 in 10.0 mi Calm Calm - N/A   Clear
5:51 PM 8.6 °F - 1.4 °F 73% 30.38 in 10.0 mi Calm Calm - N/A   Clear
6:11 PM 8.6 °F - 1.4 °F 73% 30.37 in 10.0 mi Calm Calm - N/A   Clear
6:30 PM 8.6 °F - 1.4 °F 73% 30.37 in 10.0 mi Calm Calm - N/A   Clear
6:51 PM 8.6 °F - 1.4 °F 73% 30.37 in 10.0 mi Calm Calm - N/A   Clear
7:11 PM 8.6 °F - 1.4 °F 73% 30.36 in 10.0 mi Calm Calm - N/A   Clear
7:30 PM 8.6 °F - 1.4 °F 73% 30.35 in 10.0 mi Calm Calm - N/A   Clear
7:51 PM 6.8 °F - -0.4 °F 72% 30.34 in 10.0 mi Calm Calm - N/A   Clear
8:11 PM 6.8 °F - -0.4 °F 72% 30.34 in 10.0 mi Calm Calm - N/A   Clear
8:30 PM 8.6 °F - -0.4 °F 67% 30.34 in 10.0 mi Calm Calm - N/A   Clear
8:51 PM 8.6 °F - -0.4 °F 67% 30.35 in 10.0 mi Calm Calm - N/A   Clear
9:10 PM 5.0 °F - -0.4 °F 78% 30.35 in 10.0 mi Calm Calm - N/A   Clear
9:31 PM 5.0 °F - -2.2 °F 72% 30.35 in 10.0 mi Calm Calm - N/A   Clear
9:51 PM 6.8 °F - -0.4 °F 72% 30.35 in 10.0 mi Calm Calm - N/A   Clear
10:31 PM 5.0 °F - -2.2 °F 72% 30.35 in 10.0 mi Calm Calm - N/A   Clear
10:51 PM 6.8 °F - -0.4 °F 72% 30.35 in 10.0 mi Calm Calm - N/A   Clear
11:10 PM 8.6 °F - -0.4 °F 67% 30.35 in 10.0 mi Calm Calm - N/A   Clear
11:31 PM 8.6 °F 0.1 °F -0.4 °F 67% 30.34 in 10.0 mi East 4.6 mph - N/A   Clear
11:51 PM 10.4 °F - 1.4 °F 67% 30.34 in 10.0 mi Calm Calm - N/A   Clear